contact:dominique.lefevre@mio.osupytheas.fr, maurice.libes@osupytheas.fr, didier.mallarino@osupytheas.fr
Project:EMSO http://www.emso-fr.org/EMSO-France
Depth: 2436.0 m
Title:EMSO Ligure Ouest : Data MII capteur MICROCAT
DateTime_Computer,Latitude,Longitude,Temperature,Conductivity,Pressure,DateTime_Instrument
DateTime_Computer,Latitude,Longitude,degC,S m-1,dbar,DateTime_Instrument
2019-09-15T00:01:22Z,42.805,6.029,13.2957,4.59956,2469.853,2019-9-15T02:01:45Z
2019-09-15T00:04:25Z,42.805,6.029,13.2957,4.59955,2469.9,2019-9-15T02:04:48Z
2019-09-15T00:07:29Z,42.805,6.029,13.2955,4.59956,2469.9,2019-9-15T02:07:52Z
2019-09-15T00:10:32Z,42.805,6.029,13.2959,4.59959,2469.89,2019-9-15T02:10:55Z
2019-09-15T00:13:35Z,42.805,6.029,13.2962,4.59959,2469.9,2019-9-15T02:13:58Z
2019-09-15T00:16:38Z,42.805,6.029,13.2957,4.59960,2469.89,2019-9-15T02:17:01Z
2019-09-15T00:19:42Z,42.805,6.029,13.2952,4.59957,2469.9,2019-9-15T02:20:05Z
2019-09-15T00:22:45Z,42.805,6.029,13.2953,4.59958,2469.853,2019-9-15T02:23:08Z
2019-09-15T00:25:48Z,42.805,6.029,13.2953,4.59961,2469.867,2019-9-15T02:26:11Z
2019-09-15T00:28:51Z,42.805,6.029,13.2959,4.59958,2469.853,2019-9-15T02:29:14Z
2019-09-15T00:31:54Z,42.805,6.029,13.2953,4.59955,2469.853,2019-9-15T02:32:18Z
2019-09-15T00:34:58Z,42.805,6.029,13.2957,4.59963,2469.9,2019-9-15T02:35:21Z
2019-09-15T00:38:01Z,42.805,6.029,13.2957,4.59960,2469.89,2019-9-15T02:38:24Z
2019-09-15T00:41:04Z,42.805,6.029,13.2957,4.59954,2469.853,2019-9-15T02:41:27Z
2019-09-15T00:44:07Z,42.805,6.029,13.2953,4.59956,2469.867,2019-9-15T02:44:30Z
2019-09-15T00:47:11Z,42.805,6.029,13.2951,4.59958,2469.853,2019-9-15T02:47:34Z
2019-09-15T00:50:14Z,42.805,6.029,13.2959,4.59957,2469.876,2019-9-15T02:50:37Z
2019-09-15T00:53:17Z,42.805,6.029,13.2956,4.59961,2469.853,2019-9-15T02:53:40Z
2019-09-15T00:56:20Z,42.805,6.029,13.2953,4.59958,2469.83,2019-9-15T02:56:43Z
2019-09-15T00:59:24Z,42.805,6.029,13.2961,4.59965,2469.853,2019-9-15T02:59:47Z
2019-09-15T01:02:27Z,42.805,6.029,13.2953,4.59964,2469.9,2019-9-15T03:02:50Z
2019-09-15T01:05:30Z,42.805,6.029,13.2957,4.59961,2469.853,2019-9-15T03:05:53Z
2019-09-15T01:08:33Z,42.805,6.029,13.2953,4.59957,2469.844,2019-9-15T03:08:56Z
2019-09-15T01:11:36Z,42.805,6.029,13.2967,4.59972,2469.876,2019-9-15T03:11:59Z
2019-09-15T01:14:40Z,42.805,6.029,13.2958,4.59966,2469.867,2019-9-15T03:15:03Z
2019-09-15T01:17:43Z,42.805,6.029,13.2954,4.59958,2469.844,2019-9-15T03:18:06Z
2019-09-15T01:20:46Z,42.805,6.029,13.2959,4.59959,2469.853,2019-9-15T03:21:09Z
2019-09-15T01:23:49Z,42.805,6.029,13.2954,4.59966,2469.806,2019-9-15T03:24:12Z
2019-09-15T01:26:53Z,42.805,6.029,13.2957,4.59960,2469.83,2019-9-15T03:27:16Z
2019-09-15T01:29:56Z,42.805,6.029,13.2955,4.59963,2469.853,2019-9-15T03:30:19Z
2019-09-15T01:32:59Z,42.805,6.029,13.2956,4.59966,2469.853,2019-9-15T03:33:22Z
2019-09-15T01:36:02Z,42.805,6.029,13.2952,4.59965,2469.844,2019-9-15T03:36:25Z
2019-09-15T01:39:05Z,42.805,6.029,13.2954,4.59960,2469.867,2019-9-15T03:39:28Z
2019-09-15T01:42:09Z,42.805,6.029,13.2956,4.59961,2469.83,2019-9-15T03:42:32Z
2019-09-15T01:45:12Z,42.805,6.029,13.2956,4.59960,2469.83,2019-9-15T03:45:35Z
2019-09-15T01:48:15Z,42.805,6.029,13.2954,4.59954,2469.867,2019-9-15T03:48:38Z
2019-09-15T01:51:18Z,42.805,6.029,13.2955,4.59959,2469.821,2019-9-15T03:51:41Z
2019-09-15T01:54:21Z,42.805,6.029,13.2953,4.59955,2469.83,2019-9-15T03:54:44Z
2019-09-15T01:57:25Z,42.805,6.029,13.2956,4.59954,2469.844,2019-9-15T03:57:48Z
2019-09-15T02:00:28Z,42.805,6.029,13.2953,4.59954,2469.806,2019-9-15T04:00:51Z
2019-09-15T02:03:31Z,42.805,6.029,13.2953,4.59954,2469.867,2019-9-15T04:03:54Z
2019-09-15T02:06:34Z,42.805,6.029,13.2955,4.59954,2469.821,2019-9-15T04:06:57Z
2019-09-15T02:09:38Z,42.805,6.029,13.2958,4.59954,2469.844,2019-9-15T04:10:01Z
2019-09-15T02:12:41Z,42.805,6.029,13.2953,4.59956,2469.867,2019-9-15T04:13:04Z
2019-09-15T02:15:44Z,42.805,6.029,13.2960,4.59955,2469.797,2019-9-15T04:16:07Z
2019-09-15T02:18:47Z,42.805,6.029,13.2955,4.59954,2469.806,2019-9-15T04:19:10Z
2019-09-15T02:21:51Z,42.805,6.029,13.2954,4.59956,2469.83,2019-9-15T04:22:14Z
2019-09-15T02:24:54Z,42.805,6.029,13.2953,4.59955,2469.83,2019-9-15T04:25:17Z
2019-09-15T02:27:57Z,42.805,6.029,13.2957,4.59956,2469.806,2019-9-15T04:28:20Z
2019-09-15T02:31:00Z,42.805,6.029,13.2953,4.59956,2469.806,2019-9-15T04:31:23Z
2019-09-15T02:34:03Z,42.805,6.029,13.2956,4.59956,2469.844,2019-9-15T04:34:26Z
2019-09-15T02:37:07Z,42.805,6.029,13.2957,4.59956,2469.83,2019-9-15T04:37:30Z
2019-09-15T02:40:10Z,42.805,6.029,13.2949,4.59958,2469.797,2019-9-15T04:40:33Z
2019-09-15T02:43:13Z,42.805,6.029,13.2957,4.59970,2469.821,2019-9-15T04:43:36Z
2019-09-15T02:46:16Z,42.805,6.029,13.2957,4.59956,2469.821,2019-9-15T04:46:39Z
2019-09-15T02:49:20Z,42.805,6.029,13.2955,4.59955,2469.821,2019-9-15T04:49:43Z
2019-09-15T02:52:23Z,42.805,6.029,13.2957,4.59954,2469.821,2019-9-15T04:52:46Z
2019-09-15T02:55:26Z,42.805,6.029,13.2955,4.59954,2469.806,2019-9-15T04:55:49Z
2019-09-15T02:58:30Z,42.805,6.029,13.2954,4.59956,2469.806,2019-9-15T04:58:53Z
2019-09-15T03:01:33Z,42.805,6.029,13.2958,4.59956,2469.83,2019-9-15T05:01:56Z
2019-09-15T03:04:36Z,42.805,6.029,13.2958,4.59954,2469.783,2019-9-15T05:04:59Z
2019-09-15T03:07:39Z,42.805,6.029,13.2956,4.59955,2469.806,2019-9-15T05:08:02Z
2019-09-15T03:10:43Z,42.805,6.029,13.2953,4.59955,2469.806,2019-9-15T05:11:06Z
2019-09-15T03:13:46Z,42.805,6.029,13.2956,4.59955,2469.806,2019-9-15T05:14:09Z
2019-09-15T03:16:49Z,42.805,6.029,13.2954,4.59956,2469.844,2019-9-15T05:17:12Z
2019-09-15T03:19:52Z,42.805,6.029,13.2956,4.59958,2469.806,2019-9-15T05:20:15Z
2019-09-15T03:22:55Z,42.805,6.029,13.2952,4.59956,2469.783,2019-9-15T05:23:19Z
2019-09-15T03:25:59Z,42.805,6.029,13.2957,4.59958,2469.806,2019-9-15T05:26:22Z
2019-09-15T03:29:02Z,42.805,6.029,13.2954,4.59958,2469.844,2019-9-15T05:29:25Z
2019-09-15T03:32:05Z,42.805,6.029,13.2961,4.59954,2469.844,2019-9-15T05:32:28Z
2019-09-15T03:35:08Z,42.805,6.029,13.2957,4.59953,2469.806,2019-9-15T05:35:31Z
2019-09-15T03:38:12Z,42.805,6.029,13.2961,4.59954,2469.821,2019-9-15T05:38:35Z
2019-09-15T03:41:15Z,42.805,6.029,13.2958,4.59955,2469.806,2019-9-15T05:41:38Z
2019-09-15T03:44:18Z,42.805,6.029,13.2954,4.59955,2469.844,2019-9-15T05:44:41Z
2019-09-15T03:47:21Z,42.805,6.029,13.2958,4.59955,2469.806,2019-9-15T05:47:44Z
2019-09-15T03:50:25Z,42.805,6.029,13.2958,4.59956,2469.806,2019-9-15T05:50:48Z
2019-09-15T03:53:28Z,42.805,6.029,13.2957,4.59958,2469.853,2019-9-15T05:53:51Z
2019-09-15T03:56:31Z,42.805,6.029,13.2960,4.59960,2469.83,2019-9-15T05:56:54Z
2019-09-15T03:59:34Z,42.805,6.029,13.2961,4.59956,2469.844,2019-9-15T05:59:57Z
2019-09-15T04:02:38Z,42.805,6.029,13.2965,4.59977,2469.853,2019-9-15T06:03:01Z
2019-09-15T04:05:41Z,42.805,6.029,13.2965,4.59961,2469.853,2019-9-15T06:06:04Z
2019-09-15T04:08:44Z,42.805,6.029,13.2958,4.59956,2469.844,2019-9-15T06:09:07Z
2019-09-15T04:11:47Z,42.805,6.029,13.2964,4.59956,2469.876,2019-9-15T06:12:10Z
2019-09-15T04:14:50Z,42.805,6.029,13.2964,4.59956,2469.853,2019-9-15T06:15:14Z
2019-09-15T04:17:54Z,42.805,6.029,13.2953,4.59956,2469.867,2019-9-15T06:18:17Z
2019-09-15T04:20:57Z,42.805,6.029,13.2964,4.59956,2469.876,2019-9-15T06:21:20Z
2019-09-15T04:24:00Z,42.805,6.029,13.2962,4.59960,2469.853,2019-9-15T06:24:23Z
2019-09-15T04:27:03Z,42.805,6.029,13.2955,4.59958,2469.83,2019-9-15T06:27:27Z
2019-09-15T04:30:07Z,42.805,6.029,13.2957,4.59956,2469.89,2019-9-15T06:30:30Z
2019-09-15T04:33:10Z,42.805,6.029,13.2957,4.59959,2469.853,2019-9-15T06:33:33Z
2019-09-15T04:36:13Z,42.805,6.029,13.2951,4.59960,2469.853,2019-9-15T06:36:36Z
2019-09-15T04:39:16Z,42.805,6.029,13.2953,4.59956,2469.821,2019-9-15T06:39:39Z
2019-09-15T04:42:20Z,42.805,6.029,13.2952,4.59962,2469.867,2019-9-15T06:42:43Z
2019-09-15T04:45:23Z,42.805,6.029,13.2958,4.59956,2469.89,2019-9-15T06:45:46Z
2019-09-15T04:48:26Z,42.805,6.029,13.2959,4.59957,2469.876,2019-9-15T06:48:49Z
2019-09-15T04:51:29Z,42.805,6.029,13.2958,4.59957,2469.876,2019-9-15T06:51:52Z
2019-09-15T04:54:33Z,42.805,6.029,13.2955,4.59955,2469.876,2019-9-15T06:54:56Z
2019-09-15T04:57:36Z,42.805,6.029,13.2953,4.59957,2469.89,2019-9-15T06:57:59Z
2019-09-15T05:00:39Z,42.805,6.029,13.2956,4.59958,2469.853,2019-9-15T07:01:03Z
2019-09-15T05:03:43Z,42.805,6.029,13.2957,4.59955,2469.863,2019-9-15T07:04:06Z
2019-09-15T05:06:46Z,42.805,6.029,13.2952,4.59956,2469.9,2019-9-15T07:07:09Z
2019-09-15T05:09:49Z,42.805,6.029,13.2957,4.59956,2469.853,2019-9-15T07:10:12Z
2019-09-15T05:12:52Z,42.805,6.029,13.2957,4.59955,2469.89,2019-9-15T07:13:15Z
2019-09-15T05:15:56Z,42.805,6.029,13.2954,4.59955,2469.9,2019-9-15T07:16:19Z
2019-09-15T05:18:59Z,42.805,6.029,13.2962,4.59956,2469.89,2019-9-15T07:19:22Z
2019-09-15T05:22:02Z,42.805,6.029,13.2964,4.59957,2469.886,2019-9-15T07:22:25Z
2019-09-15T05:25:05Z,42.805,6.029,13.2958,4.59964,2469.9,2019-9-15T07:25:28Z
2019-09-15T05:28:08Z,42.805,6.029,13.2961,4.59961,2469.937,2019-9-15T07:28:31Z
2019-09-15T05:31:11Z,42.805,6.029,13.2958,4.59964,2469.876,2019-9-15T07:31:35Z
2019-09-15T05:34:15Z,42.805,6.029,13.2961,4.59960,2469.937,2019-9-15T07:34:38Z
2019-09-15T05:37:18Z,42.805,6.029,13.2957,4.59964,2469.9,2019-9-15T07:37:41Z
2019-09-15T05:40:21Z,42.805,6.029,13.2954,4.59963,2469.923,2019-9-15T07:40:44Z
2019-09-15T05:43:24Z,42.805,6.029,13.2958,4.59961,2469.9,2019-9-15T07:43:48Z
2019-09-15T05:46:28Z,42.805,6.029,13.2954,4.59956,2469.96,2019-9-15T07:46:51Z
2019-09-15T05:49:31Z,42.805,6.029,13.2953,4.59958,2469.9,2019-9-15T07:49:54Z
2019-09-15T05:52:34Z,42.805,6.029,13.2954,4.59955,2469.937,2019-9-15T07:52:57Z
2019-09-15T05:55:37Z,42.805,6.029,13.2958,4.59954,2469.947,2019-9-15T07:56:00Z
2019-09-15T05:58:40Z,42.805,6.029,13.2953,4.59956,2469.923,2019-9-15T07:59:03Z
2019-09-15T06:01:44Z,42.805,6.029,13.2960,4.59954,2469.9,2019-9-15T08:02:07Z
2019-09-15T06:04:47Z,42.805,6.029,13.2952,4.59957,2469.923,2019-9-15T08:05:10Z
2019-09-15T06:07:50Z,42.805,6.029,13.2955,4.59958,2469.947,2019-9-15T08:08:13Z
2019-09-15T06:10:53Z,42.805,6.029,13.2957,4.59954,2469.923,2019-9-15T08:11:16Z
2019-09-15T06:13:56Z,42.805,6.029,13.2958,4.59960,2469.947,2019-9-15T08:14:19Z
2019-09-15T06:17:00Z,42.805,6.029,13.2954,4.59961,2469.937,2019-9-15T08:17:23Z
2019-09-15T06:20:03Z,42.805,6.029,13.2953,4.59956,2469.937,2019-9-15T08:20:26Z
2019-09-15T06:23:06Z,42.805,6.029,13.2957,4.59958,2469.923,2019-9-15T08:23:29Z
2019-09-15T06:26:09Z,42.805,6.029,13.2959,4.59956,2469.96,2019-9-15T08:26:32Z
2019-09-15T06:29:12Z,42.805,6.029,13.2953,4.59955,2469.937,2019-9-15T08:29:36Z
2019-09-15T06:32:16Z,42.805,6.029,13.2958,4.59963,2469.947,2019-9-15T08:32:39Z
2019-09-15T06:35:19Z,42.805,6.029,13.2958,4.59958,2469.97,2019-9-15T08:35:42Z
2019-09-15T06:38:22Z,42.805,6.029,13.2956,4.59954,2469.96,2019-9-15T08:38:45Z
2019-09-15T06:41:25Z,42.805,6.029,13.2960,4.59960,2469.947,2019-9-15T08:41:48Z
2019-09-15T06:44:28Z,42.805,6.029,13.2958,4.59955,2469.947,2019-9-15T08:44:51Z
2019-09-15T06:47:32Z,42.805,6.029,13.2957,4.59958,2469.933,2019-9-15T08:47:55Z
2019-09-15T06:50:35Z,42.805,6.029,13.2956,4.59961,2469.96,2019-9-15T08:50:58Z
2019-09-15T06:53:38Z,42.805,6.029,13.2955,4.59956,2469.97,2019-9-15T08:54:01Z
2019-09-15T06:56:41Z,42.805,6.029,13.2957,4.59956,2470.007,2019-9-15T08:57:04Z
2019-09-15T06:59:44Z,42.805,6.029,13.2954,4.59954,2469.984,2019-9-15T09:00:08Z
2019-09-15T07:02:48Z,42.805,6.029,13.2953,4.59955,2469.937,2019-9-15T09:03:11Z
2019-09-15T07:05:51Z,42.805,6.029,13.2953,4.59956,2469.984,2019-9-15T09:06:14Z
2019-09-15T07:08:54Z,42.805,6.029,13.2958,4.59954,2469.947,2019-9-15T09:09:17Z
2019-09-15T07:11:57Z,42.805,6.029,13.2955,4.59954,2469.97,2019-9-15T09:12:20Z
2019-09-15T07:15:00Z,42.805,6.029,13.2956,4.59958,2470.007,2019-9-15T09:15:24Z
2019-09-15T07:18:04Z,42.805,6.029,13.2960,4.59957,2469.984,2019-9-15T09:18:27Z
2019-09-15T07:21:07Z,42.805,6.029,13.2953,4.59959,2469.984,2019-9-15T09:21:30Z
2019-09-15T07:24:10Z,42.805,6.029,13.2957,4.59957,2469.923,2019-9-15T09:24:33Z
2019-09-15T07:27:13Z,42.805,6.029,13.2952,4.59956,2469.97,2019-9-15T09:27:36Z
2019-09-15T07:30:16Z,42.805,6.029,13.2953,4.59958,2469.97,2019-9-15T09:30:39Z
2019-09-15T07:33:20Z,42.805,6.029,13.2956,4.59958,2469.947,2019-9-15T09:33:43Z
2019-09-15T07:36:23Z,42.805,6.029,13.2957,4.59956,2469.993,2019-9-15T09:36:46Z
2019-09-15T07:39:26Z,42.805,6.029,13.2958,4.59954,2469.97,2019-9-15T09:39:49Z
2019-09-15T07:42:30Z,42.805,6.029,13.2957,4.59961,2469.993,2019-9-15T09:42:53Z
2019-09-15T07:45:33Z,42.805,6.029,13.2955,4.59956,2469.97,2019-9-15T09:45:56Z
2019-09-15T07:48:36Z,42.805,6.029,13.2961,4.59955,2469.984,2019-9-15T09:48:59Z
2019-09-15T07:51:39Z,42.805,6.029,13.2958,4.59956,2469.993,2019-9-15T09:52:02Z
2019-09-15T07:54:42Z,42.805,6.029,13.2955,4.59964,2469.993,2019-9-15T09:55:05Z
2019-09-15T07:57:46Z,42.805,6.029,13.2958,4.59961,2469.97,2019-9-15T09:58:09Z
2019-09-15T08:00:49Z,42.805,6.029,13.2957,4.59954,2469.96,2019-9-15T10:01:12Z
2019-09-15T08:03:52Z,42.805,6.029,13.2957,4.59954,2470.007,2019-9-15T10:04:15Z
2019-09-15T08:06:55Z,42.805,6.029,13.2961,4.59959,2470.03,2019-9-15T10:07:18Z
2019-09-15T08:09:58Z,42.805,6.029,13.2957,4.59957,2469.993,2019-9-15T10:10:21Z
2019-09-15T08:13:02Z,42.805,6.029,13.2960,4.59963,2469.984,2019-9-15T10:13:25Z
2019-09-15T08:16:05Z,42.805,6.029,13.2959,4.59956,2469.96,2019-9-15T10:16:28Z
2019-09-15T08:19:08Z,42.805,6.029,13.2957,4.59965,2470.007,2019-9-15T10:19:31Z
2019-09-15T08:22:11Z,42.805,6.029,13.2958,4.59956,2470.007,2019-9-15T10:22:34Z
2019-09-15T08:25:14Z,42.805,6.029,13.2959,4.59957,2469.993,2019-9-15T10:25:37Z
2019-09-15T08:28:18Z,42.805,6.029,13.2953,4.59955,2469.993,2019-9-15T10:28:41Z
2019-09-15T08:31:21Z,42.805,6.029,13.2958,4.59954,2469.97,2019-9-15T10:31:44Z
2019-09-15T08:34:24Z,42.805,6.029,13.2959,4.59955,2469.984,2019-9-15T10:34:47Z
2019-09-15T08:37:27Z,42.805,6.029,13.2958,4.59961,2469.96,2019-9-15T10:37:50Z
2019-09-15T08:40:31Z,42.805,6.029,13.2954,4.59954,2469.97,2019-9-15T10:40:54Z
2019-09-15T08:43:34Z,42.805,6.029,13.2957,4.59963,2470.007,2019-9-15T10:43:57Z
2019-09-15T08:46:37Z,42.805,6.029,13.2952,4.59954,2469.97,2019-9-15T10:47:00Z
2019-09-15T08:49:40Z,42.805,6.029,13.2953,4.59954,2469.97,2019-9-15T10:50:03Z
2019-09-15T08:52:43Z,42.805,6.029,13.2955,4.59956,2469.97,2019-9-15T10:53:06Z
2019-09-15T08:55:47Z,42.805,6.029,13.2958,4.59954,2469.96,2019-9-15T10:56:10Z
2019-09-15T08:58:50Z,42.805,6.029,13.2957,4.59958,2469.984,2019-9-15T10:59:13Z
2019-09-15T09:01:53Z,42.805,6.029,13.2957,4.59954,2469.96,2019-9-15T11:02:16Z
2019-09-15T09:04:56Z,42.805,6.029,13.2958,4.59953,2469.984,2019-9-15T11:05:19Z
2019-09-15T09:08:00Z,42.805,6.029,13.2962,4.59954,2469.923,2019-9-15T11:08:23Z
2019-09-15T09:11:03Z,42.805,6.029,13.2960,4.59954,2469.984,2019-9-15T11:11:26Z
2019-09-15T09:14:06Z,42.805,6.029,13.2959,4.59955,2469.984,2019-9-15T11:14:29Z
2019-09-15T09:17:09Z,42.805,6.029,13.2961,4.59957,2469.947,2019-9-15T11:17:32Z
2019-09-15T09:20:12Z,42.805,6.029,13.2958,4.59956,2469.937,2019-9-15T11:20:35Z
2019-09-15T09:23:16Z,42.805,6.029,13.2955,4.59954,2469.984,2019-9-15T11:23:39Z
2019-09-15T09:26:19Z,42.805,6.029,13.2957,4.59953,2469.96,2019-9-15T11:26:42Z
2019-09-15T09:29:22Z,42.805,6.029,13.2955,4.59954,2469.923,2019-9-15T11:29:45Z
2019-09-15T09:32:25Z,42.805,6.029,13.2956,4.59952,2469.937,2019-9-15T11:32:48Z
2019-09-15T09:35:28Z,42.805,6.029,13.2956,4.59954,2469.89,2019-9-15T11:35:51Z
2019-09-15T09:38:32Z,42.805,6.029,13.2955,4.59954,2469.9,2019-9-15T11:38:55Z
2019-09-15T09:41:35Z,42.805,6.029,13.2956,4.59956,2469.947,2019-9-15T11:41:58Z
2019-09-15T09:44:38Z,42.805,6.029,13.2958,4.59954,2469.923,2019-9-15T11:45:01Z
2019-09-15T09:47:41Z,42.805,6.029,13.2953,4.59953,2469.923,2019-9-15T11:48:04Z
2019-09-15T09:50:44Z,42.805,6.029,13.2957,4.59953,2469.937,2019-9-15T11:51:08Z
2019-09-15T09:53:48Z,42.805,6.029,13.2955,4.59954,2469.937,2019-9-15T11:54:11Z
2019-09-15T09:56:51Z,42.805,6.029,13.2957,4.59954,2469.9,2019-9-15T11:57:14Z
2019-09-15T09:59:54Z,42.805,6.029,13.2954,4.59954,2469.914,2019-9-15T12:00:17Z
2019-09-15T10:02:57Z,42.805,6.029,13.2956,4.59954,2469.923,2019-9-15T12:03:20Z
2019-09-15T10:06:00Z,42.805,6.029,13.2957,4.59954,2469.9,2019-9-15T12:06:24Z
2019-09-15T10:09:04Z,42.805,6.029,13.2955,4.59954,2469.89,2019-9-15T12:09:27Z
2019-09-15T10:12:07Z,42.805,6.029,13.2956,4.59953,2469.923,2019-9-15T12:12:30Z
2019-09-15T10:15:10Z,42.805,6.029,13.2958,4.59953,2469.9,2019-9-15T12:15:33Z
2019-09-15T10:18:13Z,42.805,6.029,13.2957,4.59953,2469.89,2019-9-15T12:18:36Z
2019-09-15T10:21:16Z,42.805,6.029,13.2953,4.59952,2469.9,2019-9-15T12:21:40Z
2019-09-15T10:24:20Z,42.805,6.029,13.2957,4.59956,2469.914,2019-9-15T12:24:43Z
2019-09-15T10:27:23Z,42.805,6.029,13.2954,4.59954,2469.914,2019-9-15T12:27:46Z
2019-09-15T10:30:26Z,42.805,6.029,13.2957,4.59956,2469.876,2019-9-15T12:30:49Z
2019-09-15T10:33:29Z,42.805,6.029,13.2958,4.59954,2469.867,2019-9-15T12:33:52Z
2019-09-15T10:36:33Z,42.805,6.029,13.2960,4.59954,2469.914,2019-9-15T12:36:56Z
2019-09-15T10:39:36Z,42.805,6.029,13.2956,4.59954,2469.937,2019-9-15T12:39:59Z
2019-09-15T10:42:39Z,42.805,6.029,13.2959,4.59956,2469.876,2019-9-15T12:43:02Z
2019-09-15T10:45:42Z,42.805,6.029,13.2956,4.59953,2469.876,2019-9-15T12:46:05Z
2019-09-15T10:48:45Z,42.805,6.029,13.2957,4.59954,2469.914,2019-9-15T12:49:08Z
2019-09-15T10:51:49Z,42.805,6.029,13.2957,4.59954,2469.876,2019-9-15T12:52:12Z
2019-09-15T10:54:52Z,42.805,6.029,13.2957,4.59954,2469.876,2019-9-15T12:55:15Z
2019-09-15T10:57:55Z,42.805,6.029,13.2955,4.59955,2469.876,2019-9-15T12:58:18Z
2019-09-15T11:00:58Z,42.805,6.029,13.2955,4.59953,2469.914,2019-9-15T13:01:22Z
2019-09-15T11:04:02Z,42.805,6.029,13.2958,4.59955,2469.867,2019-9-15T13:04:25Z
2019-09-15T11:07:05Z,42.805,6.029,13.2952,4.59954,2469.9,2019-9-15T13:07:28Z
2019-09-15T11:10:08Z,42.805,6.029,13.2954,4.59953,2469.853,2019-9-15T13:10:31Z
2019-09-15T11:13:11Z,42.805,6.029,13.2957,4.59952,2469.867,2019-9-15T13:13:34Z
2019-09-15T11:16:15Z,42.805,6.029,13.2957,4.59953,2469.853,2019-9-15T13:16:38Z
2019-09-15T11:19:18Z,42.805,6.029,13.2956,4.59954,2469.876,2019-9-15T13:19:41Z
2019-09-15T11:22:21Z,42.805,6.029,13.2956,4.59954,2469.853,2019-9-15T13:22:44Z
2019-09-15T11:25:24Z,42.805,6.029,13.2956,4.59956,2469.867,2019-9-15T13:25:47Z
2019-09-15T11:28:27Z,42.805,6.029,13.2954,4.59955,2469.876,2019-9-15T13:28:51Z
2019-09-15T11:31:31Z,42.805,6.029,13.2957,4.59954,2469.853,2019-9-15T13:31:54Z
2019-09-15T11:34:34Z,42.805,6.029,13.2953,4.59955,2469.853,2019-9-15T13:34:57Z
2019-09-15T11:37:37Z,42.805,6.029,13.2957,4.59954,2469.89,2019-9-15T13:38:00Z
2019-09-15T11:40:40Z,42.805,6.029,13.2955,4.59961,2469.83,2019-9-15T13:41:03Z
2019-09-15T11:43:43Z,42.805,6.029,13.2953,4.59964,2469.867,2019-9-15T13:44:07Z
2019-09-15T11:46:47Z,42.805,6.029,13.2953,4.59956,2469.853,2019-9-15T13:47:10Z
2019-09-15T11:49:50Z,42.805,6.029,13.2960,4.59955,2469.853,2019-9-15T13:50:13Z
2019-09-15T11:52:53Z,42.805,6.029,13.2955,4.59954,2469.844,2019-9-15T13:53:16Z
2019-09-15T11:55:56Z,42.805,6.029,13.2955,4.59953,2469.844,2019-9-15T13:56:19Z
2019-09-15T11:58:59Z,42.805,6.029,13.2957,4.59953,2469.806,2019-9-15T13:59:23Z
2019-09-15T12:02:03Z,42.805,6.029,13.2960,4.59956,2469.844,2019-9-15T14:02:26Z
2019-09-15T12:05:06Z,42.805,6.029,13.2961,4.59955,2469.853,2019-9-15T14:05:29Z
2019-09-15T12:08:09Z,42.805,6.029,13.2957,4.59954,2469.867,2019-9-15T14:08:32Z
2019-09-15T12:11:12Z,42.805,6.029,13.2957,4.59954,2469.853,2019-9-15T14:11:35Z
2019-09-15T12:14:15Z,42.805,6.029,13.2957,4.59966,2469.844,2019-9-15T14:14:39Z
2019-09-15T12:17:19Z,42.805,6.029,13.2960,4.59954,2469.844,2019-9-15T14:17:42Z
2019-09-15T12:20:22Z,42.805,6.029,13.2957,4.59954,2469.853,2019-9-15T14:20:45Z
2019-09-15T12:23:25Z,42.805,6.029,13.2952,4.59956,2469.853,2019-9-15T14:23:48Z
2019-09-15T12:26:28Z,42.805,6.029,13.2955,4.59953,2469.806,2019-9-15T14:26:52Z
2019-09-15T12:29:32Z,42.805,6.029,13.2956,4.59954,2469.83,2019-9-15T14:29:55Z
2019-09-15T12:32:35Z,42.805,6.029,13.2954,4.59953,2469.844,2019-9-15T14:32:58Z
2019-09-15T12:35:38Z,42.805,6.029,13.2957,4.59956,2469.83,2019-9-15T14:36:01Z
2019-09-15T12:38:41Z,42.805,6.029,13.2953,4.59951,2469.844,2019-9-15T14:39:04Z
2019-09-15T12:41:45Z,42.805,6.029,13.2953,4.59951,2469.844,2019-9-15T14:42:08Z
2019-09-15T12:44:48Z,42.805,6.029,13.2956,4.59954,2469.797,2019-9-15T14:45:11Z
2019-09-15T12:47:51Z,42.805,6.029,13.2955,4.59951,2469.806,2019-9-15T14:48:14Z
2019-09-15T12:50:54Z,42.805,6.029,13.2957,4.59953,2469.821,2019-9-15T14:51:17Z
2019-09-15T12:53:57Z,42.805,6.029,13.2956,4.59954,2469.806,2019-9-15T14:54:21Z
2019-09-15T12:57:01Z,42.805,6.029,13.2953,4.59954,2469.867,2019-9-15T14:57:24Z
2019-09-15T13:00:04Z,42.805,6.029,13.2957,4.59954,2469.821,2019-9-15T15:00:27Z
2019-09-15T13:03:07Z,42.805,6.029,13.2957,4.59963,2469.806,2019-9-15T15:03:30Z
2019-09-15T13:06:10Z,42.805,6.029,13.2957,4.59957,2469.844,2019-9-15T15:06:33Z
2019-09-15T13:09:14Z,42.805,6.029,13.2954,4.59955,2469.806,2019-9-15T15:09:37Z
2019-09-15T13:12:17Z,42.805,6.029,13.2957,4.59951,2469.76,2019-9-15T15:12:40Z
2019-09-15T13:15:20Z,42.805,6.029,13.2955,4.59953,2469.797,2019-9-15T15:15:43Z
2019-09-15T13:18:23Z,42.805,6.029,13.2954,4.59955,2469.821,2019-9-15T15:18:46Z
2019-09-15T13:21:26Z,42.805,6.029,13.2957,4.59954,2469.821,2019-9-15T15:21:49Z
2019-09-15T13:24:30Z,42.805,6.029,13.2952,4.59951,2469.806,2019-9-15T15:24:53Z
2019-09-15T13:27:33Z,42.805,6.029,13.2957,4.59952,2469.783,2019-9-15T15:27:56Z
2019-09-15T13:30:36Z,42.805,6.029,13.2955,4.59952,2469.806,2019-9-15T15:30:59Z
2019-09-15T13:33:39Z,42.805,6.029,13.2957,4.59952,2469.797,2019-9-15T15:34:02Z
2019-09-15T13:36:42Z,42.805,6.029,13.2956,4.59953,2469.806,2019-9-15T15:37:06Z
2019-09-15T13:39:46Z,42.805,6.029,13.2955,4.59958,2469.806,2019-9-15T15:40:09Z
2019-09-15T13:42:49Z,42.805,6.029,13.2953,4.59956,2469.76,2019-9-15T15:43:12Z
2019-09-15T13:45:52Z,42.805,6.029,13.2956,4.59953,2469.76,2019-9-15T15:46:15Z
2019-09-15T13:48:55Z,42.805,6.029,13.2952,4.59951,2469.797,2019-9-15T15:49:18Z
2019-09-15T13:51:59Z,42.805,6.029,13.2953,4.59953,2469.797,2019-9-15T15:52:22Z
2019-09-15T13:55:02Z,42.805,6.029,13.2953,4.59956,2469.797,2019-9-15T15:55:25Z
2019-09-15T13:58:05Z,42.805,6.029,13.2956,4.59951,2469.783,2019-9-15T15:58:28Z
2019-09-15T14:01:08Z,42.805,6.029,13.2958,4.59952,2469.783,2019-9-15T16:01:31Z
2019-09-15T14:04:11Z,42.805,6.029,13.2957,4.59953,2469.797,2019-9-15T16:04:35Z
2019-09-15T14:07:15Z,42.805,6.029,13.2958,4.59953,2469.773,2019-9-15T16:07:38Z
2019-09-15T14:10:18Z,42.805,6.029,13.2957,4.59954,2469.83,2019-9-15T16:10:41Z
2019-09-15T14:13:21Z,42.805,6.029,13.2957,4.59955,2469.773,2019-9-15T16:13:44Z
2019-09-15T14:16:24Z,42.805,6.029,13.2957,4.59962,2469.773,2019-9-15T16:16:47Z
2019-09-15T14:19:28Z,42.805,6.029,13.2952,4.59958,2469.821,2019-9-15T16:19:51Z
2019-09-15T14:22:31Z,42.805,6.029,13.2957,4.59954,2469.783,2019-9-15T16:22:54Z
2019-09-15T14:25:34Z,42.805,6.029,13.2953,4.59953,2469.806,2019-9-15T16:25:57Z
2019-09-15T14:28:37Z,42.805,6.029,13.2955,4.59955,2469.821,2019-9-15T16:29:00Z
2019-09-15T14:31:40Z,42.805,6.029,13.2952,4.59968,2469.797,2019-9-15T16:32:03Z
2019-09-15T14:34:43Z,42.805,6.029,13.2954,4.59954,2469.821,2019-9-15T16:35:07Z
2019-09-15T14:37:47Z,42.805,6.029,13.2954,4.59956,2469.806,2019-9-15T16:38:10Z
2019-09-15T14:40:50Z,42.805,6.029,13.2955,4.59954,2469.797,2019-9-15T16:41:13Z
2019-09-15T14:43:53Z,42.805,6.029,13.2950,4.59954,2469.76,2019-9-15T16:44:16Z
2019-09-15T14:46:56Z,42.805,6.029,13.2953,4.59953,2469.821,2019-9-15T16:47:20Z
2019-09-15T14:50:00Z,42.805,6.029,13.2956,4.59958,2469.783,2019-9-15T16:50:23Z
2019-09-15T14:53:03Z,42.805,6.029,13.2957,4.59952,2469.783,2019-9-15T16:53:26Z
2019-09-15T14:56:06Z,42.805,6.029,13.2954,4.59954,2469.783,2019-9-15T16:56:29Z
2019-09-15T14:59:09Z,42.805,6.029,13.2956,4.59952,2469.797,2019-9-15T16:59:32Z
2019-09-15T15:02:12Z,42.805,6.029,13.2953,4.59954,2469.797,2019-9-15T17:02:36Z
2019-09-15T15:05:16Z,42.805,6.029,13.2951,4.59953,2469.806,2019-9-15T17:05:39Z
2019-09-15T15:08:19Z,42.805,6.029,13.2954,4.59953,2469.797,2019-9-15T17:08:42Z
2019-09-15T15:11:22Z,42.805,6.029,13.2954,4.59954,2469.806,2019-9-15T17:11:45Z
2019-09-15T15:14:25Z,42.805,6.029,13.2952,4.59954,2469.783,2019-9-15T17:14:48Z